Alma, MI

12:44 PM EST on February 14, 2016 (GMT -0500)
Gratiot Community

Weather History for KAMN - September, 2013

Change the Weather History Date:

Tuesday, September 17, 2013

  Actual Average Record
Temperature  
Mean Temperature 50 °F -  
Max Temperature 69 °F 70 °F 89 °F (1955)
Min Temperature 32 °F 48 °F 32 °F (2013)
Degree Days  
Heating Degree Days 14    
Moisture  
Dew Point 40 °F    
Average Humidity 73    
Maximum Humidity 100    
Minimum Humidity 31    
Precipitation  
Precipitation 0.00 in - - ()
Sea Level Pressure  
Sea Level Pressure 30.34 in    
Wind  
Wind Speed 3 mph (SE)    
Max Wind Speed 8 mph    
Max Gust Speed -    
Visibility 8 miles    
Events Fog    
Averages and records for this station are not official NWS values.
T = Trace of Precipitation, MM = Missing Value Source: NWS Daily Summary

Daily Weather History Graph

Daily Weather History Graph

Search for Another Location

Airport or City:

Trip Planner

Search our weather history database for the weather conditions in past years. The results will help you decide how hot, cold, wet, or windy it might be!

Date:

Astronomy

Sep. 17, 2013 Rise Set
Actual Time 7:20 AM EDT 7:44 PM EDT
Civil Twilight 6:52 AM EDT 8:13 PM EDT
Nautical Twilight 6:18 AM EDT 8:46 PM EDT
Astronomical Twilight 5:43 AM EDT 9:21 PM EDT
Moon 6:32 PM EDT (9/17) 5:11 AM EDT (9/17)
Length of Visible Light 13h 21m
Length of Day
12h 24m
Waxing Gibbous, 96% of the Moon is Illuminated
Sep 17
Waxing Gibbous
Sep 19
Full
Sep 26
Last Quarter
Oct 4
New
Oct 11
First Quarter

Hourly Weather History & Observations

Time (EDT) Temp. Windchill Dew Point Humidity Pressure Visibility Wind Dir Wind Speed Gust Speed Precip Events Conditions
12:11 AM 41.5 °F 37.8 °F 39.0 °F 91% 30.40 in 10.0 mi East 5.8 mph - N/A   Clear
12:32 AM 41.0 °F 38.0 °F 38.8 °F 92% 30.40 in 10.0 mi East 4.6 mph - N/A   Clear
12:51 AM 42.1 °F 40.2 °F 39.6 °F 91% 30.41 in 10.0 mi East 3.5 mph - N/A   Clear
1:11 AM 40.3 °F 37.1 °F 38.3 °F 93% 30.40 in 10.0 mi East 4.6 mph - N/A   Clear
1:31 AM 40.5 °F 38.4 °F 38.8 °F 94% 30.40 in 10.0 mi East 3.5 mph - N/A   Clear
1:54 AM 39.9 °F - 38.3 °F 94% 30.41 in 10.0 mi Calm Calm - N/A   Clear
2:14 AM 39.2 °F - 38.1 °F 96% 30.41 in 10.0 mi Calm Calm - N/A   Clear
2:34 AM 36.0 °F - 34.9 °F 96% 30.41 in 10.0 mi Calm Calm - N/A   Clear
2:54 AM 35.6 °F - 34.5 °F 96% 30.41 in 5.0 mi Calm Calm - N/A   Clear
3:14 AM 36.7 °F - 35.8 °F 97% 30.41 in 5.0 mi Calm Calm - N/A   Clear
3:34 AM 35.8 °F - 35.1 °F 97% 30.41 in 4.0 mi Calm Calm - N/A   Clear
3:54 AM 34.7 °F - 34.2 °F 98% 30.41 in 0.8 mi Calm Calm - N/A   Mist
4:09 AM 35.2 °F - 34.7 °F 98% 30.41 in 2.0 mi Calm Calm - N/A   Clear
4:32 AM 34.5 °F - 34.0 °F 98% 30.41 in 0.5 mi Calm Calm - N/A Fog Fog
4:52 AM 33.6 °F - 33.3 °F 99% 30.42 in 5.0 mi Calm Calm - N/A   Scattered Clouds
5:12 AM 33.4 °F - 33.1 °F 99% 30.42 in 1.2 mi Calm Calm - N/A   Mist
5:32 AM 34.7 °F - 34.3 °F 99% 30.41 in 0.8 mi Calm Calm - N/A   Mist
5:52 AM 32.5 °F - 32.4 °F 99% 30.41 in 0.5 mi Calm Calm - N/A Fog Fog
6:12 AM 33.4 °F - 33.3 °F 99% 30.41 in 2.0 mi Calm Calm - N/A   Clear
6:32 AM 32.5 °F - 32.4 °F 99% 30.41 in 0.5 mi Calm Calm - N/A Fog Fog
6:52 AM 32.9 °F - 32.5 °F 99% 30.41 in 0.2 mi Calm Calm - N/A Fog Fog
7:13 AM 32.9 °F - 32.7 °F 99% 30.41 in 1.0 mi Calm Calm - N/A   Mostly Cloudy
7:35 AM 32.7 °F - 32.5 °F 99% 30.42 in 1.0 mi Calm Calm - N/A   Mostly Cloudy
7:55 AM 32.9 °F - 32.9 °F 100% 30.43 in 0.5 mi Calm Calm - N/A Fog Fog
8:15 AM 34.9 °F - 34.7 °F 99% 30.42 in 3.0 mi Calm Calm - N/A   Clear
8:35 AM 37.6 °F - 37.4 °F 99% 30.42 in 3.0 mi Calm Calm - N/A   Clear
8:55 AM 41.5 °F - 41.2 °F 99% 30.43 in 7.0 mi Calm Calm - N/A   Clear
9:10 AM 43.3 °F - 42.8 °F 98% 30.43 in 10.0 mi Calm Calm - N/A   Clear
9:31 AM 46.0 °F 44.8 °F 45.1 °F 97% 30.43 in 10.0 mi East 3.5 mph - N/A   Clear
9:51 AM 48.7 °F - 46.0 °F 90% 30.42 in 10.0 mi Calm Calm - N/A   Clear
10:13 AM 50.9 °F - 44.6 °F 79% 30.42 in 10.0 mi Calm Calm - N/A   Clear
10:33 AM 52.5 °F - 44.4 °F 74% 30.42 in 10.0 mi Calm Calm - N/A   Clear
10:53 AM 54.0 °F - 44.4 °F 70% 30.42 in 10.0 mi Calm Calm - N/A   Clear
11:13 AM 55.4 °F - 44.6 °F 67% 30.41 in 10.0 mi SSE 4.6 mph - N/A   Clear
11:33 AM 56.7 °F - 45.0 °F 65% 30.41 in 10.0 mi South 3.5 mph - N/A   Clear
11:54 AM 57.7 °F - 44.2 °F 61% 30.40 in 10.0 mi Calm Calm - N/A   Clear
12:14 PM 58.8 °F - 42.8 °F 55% 30.39 in 10.0 mi Calm Calm - N/A   Clear
12:34 PM 60.6 °F - 40.6 °F 48% 30.38 in 10.0 mi Calm Calm - N/A   Clear
12:54 PM 61.0 °F - 38.5 °F 43% 30.38 in 10.0 mi SE 5.8 mph - N/A   Clear
1:09 PM 62.2 °F - 38.3 °F 41% 30.36 in 10.0 mi Calm Calm - N/A   Clear
1:31 PM 63.3 °F - 38.1 °F 39% 30.36 in 10.0 mi SE 6.9 mph - N/A   Clear
1:51 PM 65.3 °F - 38.8 °F 38% 30.35 in 10.0 mi SE 6.9 mph - N/A   Clear
2:11 PM 65.7 °F - 39.0 °F 38% 30.34 in 10.0 mi SSE 8.1 mph - N/A   Clear
2:32 PM 65.7 °F - 36.1 °F 34% 30.33 in 10.0 mi SSE 3.5 mph - N/A   Clear
2:52 PM 66.7 °F - 35.1 °F 31% 30.32 in 10.0 mi SSW 5.8 mph - N/A   Clear
3:12 PM 66.9 °F - 36.1 °F 32% 30.31 in 10.0 mi South 5.8 mph - N/A   Clear
3:32 PM 67.8 °F - 37.6 °F 33% 30.30 in 10.0 mi SSW 3.5 mph - N/A   Clear
3:54 PM 67.3 °F - 36.7 °F 32% 30.29 in 10.0 mi SSE 6.9 mph - N/A   Clear
4:14 PM 67.3 °F - 36.5 °F 32% 30.28 in 10.0 mi South 4.6 mph - N/A   Clear
4:34 PM 67.3 °F - 37.6 °F 34% 30.28 in 10.0 mi SE 6.9 mph - N/A   Clear
4:55 PM 69.1 °F - 38.1 °F 32% 30.28 in 10.0 mi SSE 6.9 mph - N/A   Clear
5:15 PM 68.9 °F - 38.7 °F 33% 30.27 in 10.0 mi SSE 5.8 mph - N/A   Clear
5:35 PM 67.6 °F - 40.5 °F 37% 30.26 in 10.0 mi SSE 4.6 mph - N/A   Clear
5:55 PM 67.8 °F - 42.4 °F 40% 30.26 in 10.0 mi East 3.5 mph - N/A   Clear
6:15 PM 67.1 °F - 43.3 °F 42% 30.26 in 10.0 mi SE 6.9 mph - N/A   Clear
6:35 PM 67.1 °F - 45.1 °F 45% 30.25 in 10.0 mi ESE 6.9 mph - N/A   Clear
6:52 PM 64.9 °F - 46.6 °F 51% 30.24 in 10.0 mi ESE 5.8 mph - N/A   Clear
7:12 PM 63.5 °F - 47.7 °F 56% 30.24 in 10.0 mi ESE 4.6 mph - N/A   Clear
7:33 PM 61.9 °F - 47.5 °F 59% 30.23 in 10.0 mi ESE 4.6 mph - N/A   Clear
7:53 PM 60.3 °F - 47.8 °F 64% 30.23 in 10.0 mi ESE 4.6 mph - N/A   Clear
8:13 PM 58.5 °F - 48.2 °F 69% 30.23 in 10.0 mi Calm Calm - N/A   Clear
8:33 PM 56.8 °F - 49.3 °F 76% 30.23 in 10.0 mi Calm Calm - N/A   Clear
8:53 PM 56.1 °F - 49.1 °F 77% 30.23 in 10.0 mi Calm Calm - N/A   Clear
9:13 PM 55.9 °F - 49.1 °F 78% 30.23 in 10.0 mi Calm Calm - N/A   Clear
9:35 PM 55.2 °F - 49.1 °F 80% 30.22 in 10.0 mi ESE 4.6 mph - N/A   Clear
9:55 PM 55.6 °F - 48.7 °F 78% 30.22 in 10.0 mi SE 3.5 mph - N/A   Clear
10:16 PM 54.1 °F - 48.4 °F 81% 30.22 in 10.0 mi SSE 3.5 mph - N/A   Clear
10:31 PM 53.6 °F - 48.2 °F 82% 30.22 in 10.0 mi ESE 3.5 mph - N/A   Clear
10:51 PM 53.6 °F - 48.2 °F 82% 30.22 in 10.0 mi South 3.5 mph - N/A   Clear
11:11 PM 53.1 °F - 48.0 °F 83% 30.22 in 10.0 mi Calm Calm - N/A   Clear
11:31 PM 52.7 °F - 47.7 °F 83% 30.22 in 10.0 mi Calm Calm - N/A   Clear
11:51 PM 51.8 °F - 47.7 °F 86% 30.22 in 10.0 mi Calm Calm - N/A   Clear